CYMT

Chapais Airport

ICAO Code CYMT
IATA Code YMT
Name Chapais Airport
Location Chibougamau, Quebec, CA
Elevation 1270 Feet / 387.1 Meters
Latitude 49.77194444
Longitude -74.52805556
METAR CYMT 130300Z AUTO 18008KT 9SM CLR 16/12 A2977 RMK SLP086 DENSITY ALT 1900FT
Extra information Display Charts
Runway Length Width Surface Elevation
04 6495 ft 150 ft ASP 1262 ft
22 6495 ft 150 ft ASP 1270 ft